Regional Weather Roundup
Issued by NWS

Home | Current Version | Previous Version | Graphics & Text | Print | Product List | Glossary On
Versions: 1 2 3 4 5 6 7 8 9 10 11 12 13 14 15 16 17 18 19 20 21 22 23 24 25 26 27 28 29 30 31 32 33 34 35 36 37 38 39 40 41 42 43 44 45 46 47 48 49 50
000
ASUS43 KFSD 241110
RWRSD

WEATHER ROUNDUP FOR SOUTH DAKOTA
NATIONAL WEATHER SERVICE SIOUX FALLS SD
500 AM CST TUE JAN 24 2017

NOTE: "FAIR" INDICATES FEW OR NO CLOUDS BELOW 12,000 FEET WITH NO
SIGNIFICANT WEATHER AND/OR OBSTRUCTIONS TO VISIBILITY.


SDZ001>005-009-010-012>017-241200-
NORTHWEST AND NORTH CENTRAL SOUTH DAKOTA

CITY           SKY/WX    TMP DP  RH WIND       PRES   REMARKS
BUFFALO          N/A     23  19  85 N14       29.69F WCI  11
FAITH            N/A     24  22  91 N15       29.78R WCI  11
MOBRIDGE       LGT SNOW  28  22  78 NE14      29.78F WCI  17
$$

SDZ012>016-024>037-041>051-057-063-072>074-241200-
SOUTHWEST AND SOUTH CENTRAL SOUTH DAKOTA

CITY           SKY/WX    TMP DP  RH WIND       PRES   REMARKS
RAPID CTY ARPT CLOUDY    22  21  96 N21       29.71F FOG     WCI   6
PIERRE         FOG       28  27  96 NE13      29.75F VSB 3/4 WCI  17
CUSTER         LGT SNOW  21  18  88 NE5       29.56F FOG     WCI  15
ELLSWORTH AFB  FOG       23  23 100 N7        29.70F VSB 5/8 WCI  15
PHILIP         CLOUDY    26  26 100 N17       29.74F FOG     WCI  13
PINE RIDGE     LGT SNOW  24  23  96 NE10      29.65F FOG     WCI  14
SPEARFISH      FOG       18  16  93 NW6       29.73R VSB<1/4 WCI   9
WINNER         FOG       31  30  96 E10       29.71S VSB 1/2 WCI  22
$$

SDZ004>011-016>023-039-040-241200-
NORTHEAST SOUTH DAKOTA

CITY           SKY/WX    TMP DP  RH WIND       PRES   REMARKS
ABERDEEN       CLOUDY    29  25  85 N7        29.85R WCI  22
WATERTOWN      CLOUDY    28  26  92 E5        29.82R WCI  23
BROOKINGS      CLOUDY    30  28  92 E8        29.80S WCI  22
SISSETON         N/A     31  29  92 CALM      29.86R
$$

SDZ017-020-022-023-036>040-048>070-241200-
SOUTHEAST SOUTH DAKOTA

CITY           SKY/WX    TMP DP  RH WIND       PRES   REMARKS
SIOUX FALLS    CLOUDY    31  30  96 E12       29.79F WCI  22
HURON          CLOUDY    30  29  96 E7        29.80F WCI  23
CHAMBERLAIN    CLOUDY    32  31  98 E9        29.75S FOG     WCI  24
MITCHELL       CLOUDY    32  30  92 E7        29.80R WCI  26
YANKTON        PTCLDY    30  28  93 E8        29.76S WCI  23
$$

ABBREVIATIONS USED IN REMARKS
   TC - TEMPERATURE IN CELSIUS
  WCI - WIND CHILL INDEX
   HX - HEAT INDEX
  VSB - VISIBILITY




USA.gov is the U.S. government's official web portal to all federal, state and local government web resources and services.